Location: Maiden
(35.5760°N, 81.2120°W)
Time: 01:44:36
(UTC-04:00)

A-11 Canister half - Pass Details

Date: 09 August 2020
Orbit: 1527 x 1682 km, 47.3° (Epoch: 25 September)

Event Time Altitude Azimuth Distance (km) Brightness Sun altitude
Rises 13:00:03 0° 232° (SW) 4,885 11.7 68.9°
Reaches altitude 10° 13:03:10 10° 233° (SW) 3,913 11.4 69.1°
Maximum altitude 13:13:18 90° 162° (SSE) 1,684 11.0 69.6°
Drops below altitude 10° 13:23:30 10° 56° (NE) 3,936 11.2 69.9°
Sets 13:26:39 0° 56° (ENE) 4,916 11.5 70.0°
